Regional Weather Roundup
Issued by NWS

Home | Current Version | Previous Version | Graphics & Text | Print | Product List | Glossary On
Versions: 1 2 3 4 5 6 7 8 9 10 11 12 13 14 15 16 17 18 19 20 21 22 23 24 25 26 27 28 29 30 31 32 33 34 35 36 37 38 39 40 41 42 43 44 45 46 47 48 49 50
000
ASUS43 KBIS 282110
RWRND
NORTH DAKOTA REGIONAL WEATHER ROUNDUP
NATIONAL WEATHER SERVICE EASTERN NORTH DAKOTA/GRAND FORKS ND
400 PM CDT WED JUN 28 2017

  NOTE: "FAIR" INDICATES FEW OR NO CLOUDS BELOW 12,000 FEET WITH NO
  SIGNIFICANT WEATHER AND/OR OBSTRUCTIONS TO VISIBILITY.

NDZ001>003-009>011-017-282200-
...NORTHWEST NORTH DAKOTA...

CITY           SKY/WX    TMP DP  RH WIND       PRES   REMARKS
WILLISTON      FAIR      81  37  20 N6        29.72F
MINOT          FAIR      80  45  28 N14       29.67F
MINOT AFB      FAIR      79  46  30 N8        29.67R
$$

NDZ018>021-031>035-040>046-282200-
...SOUTHWEST NORTH DAKOTA...

CITY           SKY/WX    TMP DP  RH WIND       PRES   REMARKS
BISMARCK       FAIR      82  42  24 N12       29.69S
DICKINSON      FAIR      81  33  17 E7        29.72F
GARRISON         N/A     78  45  30 N10G21    29.69S
HETTINGER      FAIR      82  27  13 N8G20     29.75F
$$

NDZ004>008-012>016-024-026-027-054-282200-
...NORTHEAST NORTH DAKOTA...

CITY           SKY/WX    TMP DP  RH WIND       PRES   REMARKS
GRAND FORKS    CLOUDY    66  63  90 N13       29.58R
GRAND FORKS AF CLOUDY    64  64  98 N9        29.60R
DEVILS LAKE    FAIR      75  55  49 NW16      29.63R
$$

NDZ022-023-025-028>030-036>039-047>053-282200-
...SOUTHEAST NORTH DAKOTA...

CITY           SKY/WX    TMP DP  RH WIND       PRES   REMARKS
JAMESTOWN      FAIR      78  55  44 NW20G28   29.62R
FARGO          CLOUDY    67  62  84 NW21G26   29.55R
WAHPETON       MOCLDY    70  59  68 NW24      29.56R
$$




USA.gov is the U.S. government's official web portal to all federal, state and local government web resources and services.